Fairbanks, AK

5:34 PM AKST on February 24, 2017 (GMT -0900)
Fairbanks International

Weather History for PAFA - April, 2012

Change the Weather History Date:

Tuesday, April 17, 2012

  Actual Average Record
Temperature  
Mean Temperature 44 °F 34 °F  
Max Temperature 59 °F 46 °F 60 °F (1996)
Min Temperature 29 °F 22 °F -16 °F (1963)
Degree Days  
Heating Degree Days 21 31  
Month to date heating degree days 561 632  
Since 1 July heating degree days 12978 12682  
Cooling Degree Days 0 0  
Month to date cooling degree days 0 0  
Year to date cooling degree days 0 0  
Moisture  
Dew Point 27 °F    
Average Humidity 54    
Maximum Humidity 85    
Minimum Humidity 21    
Precipitation  
Precipitation 0.00 in 0.01 in 0.22 in (1947)
Month to date precipitation T 0.14  
Year to date precipitation 1.85 1.39  
Snow  
Snow 0.00 in 0.10 in 3.10 in (1947)
Month to date snowfall T 1.9  
Since 1 July snowfall 57.4 63.1  
Snow Depth 7.00 in    
Sea Level Pressure  
Sea Level Pressure 29.72 in    
Wind  
Wind Speed 1 mph (ESE)    
Max Wind Speed 4 mph    
Max Gust Speed -    
Visibility 10 miles    
Events      
T = Trace of Precipitation, MM = Missing Value Source: NWS Daily Summary

Daily Weather History Graph

Daily Weather History Graph

Search for Another Location

Airport or City:

Trip Planner

Search our weather history database for the weather conditions in past years. The results will help you decide how hot, cold, wet, or windy it might be!

Date:

Astronomy

Apr. 17, 2012 Rise Set
Actual Time 6:06 AM AKDT 9:36 PM AKDT
Civil Twilight 5:07 AM AKDT 10:36 PM AKDT
Nautical Twilight 3:34 AM AKDT 12:13 AM AKDT
Astronomical Twilight Sun does not rise Sun does not rise
Moon 5:15 AM AKDT (4/17) 5:44 PM AKDT (4/17)
Length of Visible Light 17h 29m
Length of Day
15h 30m
Waning Crescent, 11% of the Moon is Illuminated
Apr 17
Waning Crescent
Apr 20
New
Apr 29
First Quarter
May 5
Full
May 12
Last Quarter

Hourly Weather History & Observations

Time (AKDT) Temp. Windchill Dew Point Humidity Pressure Visibility Wind Dir Wind Speed Gust Speed Precip Events Conditions
12:53 AM 39.9 °F 37.8 °F 27.0 °F 60% 29.72 in 10.0 mi NE 3.5 mph - N/A   Scattered Clouds
1:53 AM 35.1 °F - 27.0 °F 72% 29.73 in 10.0 mi Calm Calm - N/A   Scattered Clouds
2:53 AM 33.1 °F 30.0 °F 27.0 °F 78% 29.73 in 10.0 mi ENE 3.5 mph - N/A   Scattered Clouds
3:53 AM 32.0 °F - 27.0 °F 82% 29.73 in 10.0 mi Calm Calm - N/A   Scattered Clouds
4:53 AM 30.9 °F 27.5 °F 26.1 °F 82% 29.74 in 10.0 mi ENE 3.5 mph - N/A   Scattered Clouds
5:53 AM 30.0 °F - 26.1 °F 85% 29.74 in 10.0 mi Calm Calm - N/A   Scattered Clouds
6:53 AM 32.0 °F - 26.1 °F 79% 29.74 in 10.0 mi Calm Calm - N/A   Scattered Clouds
7:53 AM 34.0 °F - 28.0 °F 79% 29.75 in 10.0 mi Calm Calm - N/A   Partly Cloudy
8:53 AM 37.9 °F - 28.0 °F 68% 29.75 in 10.0 mi Calm Calm - N/A   Partly Cloudy
9:53 AM 42.1 °F - 27.0 °F 55% 29.75 in 10.0 mi Calm Calm - N/A   Partly Cloudy
10:53 AM 46.0 °F - 27.0 °F 47% 29.74 in 10.0 mi Calm Calm - N/A   Partly Cloudy
11:53 AM 50.0 °F - 27.0 °F 41% 29.74 in 10.0 mi Calm Calm - N/A   Partly Cloudy
12:53 PM 52.0 °F - 27.0 °F 38% 29.73 in 10.0 mi Calm Calm - N/A   Scattered Clouds
1:53 PM 52.0 °F - 26.1 °F 37% 29.73 in 10.0 mi SSE 3.5 mph - N/A   Scattered Clouds
2:53 PM 57.0 °F - 26.1 °F 30% 29.72 in 10.0 mi Calm Calm - N/A   Scattered Clouds
3:53 PM 55.0 °F - 26.1 °F 33% 29.71 in 10.0 mi Calm Calm - N/A   Scattered Clouds
4:53 PM 57.0 °F - 26.1 °F 30% 29.70 in 10.0 mi Calm Calm - N/A   Scattered Clouds
5:53 PM 57.0 °F - 25.0 °F 29% 29.70 in 10.0 mi Calm Calm - N/A   Scattered Clouds
6:53 PM 57.0 °F - 26.1 °F 30% 29.69 in 10.0 mi Calm Calm - N/A   Scattered Clouds
7:53 PM 54.0 °F - 28.9 °F 38% 29.69 in 10.0 mi South 3.5 mph - N/A   Scattered Clouds
8:53 PM 48.0 °F - 28.9 °F 48% 29.69 in 10.0 mi West 3.5 mph - N/A   Scattered Clouds
9:53 PM 46.0 °F - 27.0 °F 47% 29.70 in 10.0 mi Calm Calm - N/A   Scattered Clouds
10:53 PM 39.0 °F - 28.9 °F 67% 29.70 in 10.0 mi Calm Calm - N/A   Scattered Clouds
11:53 PM 36.0 °F - 28.9 °F 76% 29.71 in 10.0 mi Calm Calm - N/A   Scattered Clouds